Temp
89 89 89 89 89 88 86 89 88 87 86 88 88 87 88 88 88 86 88 89 87 88 89 88 88 89 92 95 95 94 93 93 88 93 96 97 91 91 93 94 97 97 99
87 87 88 88 88 89 87 89 88 87 87 88 88 87 88 89 88 86 87 91 88 87 88 88 88 92 87 88 92 89 90 90 89 84 90 93 92 92 92 91 96 101 99
87 87 88 86 88 87 88 88 88 87 88 89 87 88 88 89 87 87 88 87 88 89 89 88 88 88 86 89 89 90 93 93 91 90 89 94 95 95 93 93 93 95 101
82 83 84 83 87 86 87 86 87 87 87 88 88 88 88 90 89 90 89 88 88 90 89 89 88 88 86 87 88 86 88 87 89 88 90 93 94 95 95 94 93 97 96
71 77 78 81 82 84 84 84 85 86 87 88 88 88 88 87 91 88 88 88 88 88 88 89 90 86 75 77 87 86 84 86 89 89 89 92 92 90 88 93 92 94 94
72 70 69 71 72 76 81 82 82 83 85 86 86 87 88 87 63 65 73 86 88 87 87 88 90 80 79 70 69 69 74 81 82 85 88 88 85 88 92 91 90 89 86
72 70 69 69 68 69 71 77 80 80 82 82 83 80 75 76 61 62 66 87 86 87 85 86 86 83 77 83 76 68 69 67 69 80 81 84 82 84 84 84 84 85 86
66 67 68 68 68 66 68 69 73 79 79 79 74 75 75 71 59 61 66 81 76 74 75 74 72 71 69 71 82 85 86 87 84 85 83 84 84 83 82 83 81 83 86
64 64 66 66 67 70 70 72 73 68 74 70 73 74 70 66 56 57 71 82 79 78 77 76 77 76 58 58 78 80 81 84 77 68 67 66 66 66 70 83 85 76 83
62 65 68 68 70 69 70 73 75 69 66 66 70 69 62 66 54 55 65 84 79 83 80 76 60 64 56 54 74 77 77 80 79 81 83 82 75 81 66 80 83 75 78
61 64 66 69 70 72 71 74 72 66 65 65 65 65 63 64 60 54 54 71 77 81 81 80 79 57 54 52 54 75 72 69 76 82 86 89 89 90 90 85 84 83 82
63 62 63 67 72 70 69 70 69 67 65 66 67 70 69 65 55 54 54 55 58 73 74 76 73 54 53 54 61 55 54 59 85 85 84 83 81 81 84 84 82 82 83
67 66 68 68 69 70 69 69 70 70 70 68 70 69 70 71 69 55 54 56 58 68 68 62 56 53 55 64 59 59 57 82 81 80 79 80 81 83 81 82 83 82 83
65 65 66 67 67 68 72 72 72 72 71 70 69 68 64 63 58 60 66 68 61 65 63 70 67 61 57 65 71 73 73 79 76 78 77 79 81 81 80 82 79 81 80
66 66 66 67 67 65 61 65 64 57 58 68 68 67 67 64 56 47 47 56 58 58 52 70 69 70 72 72 74 74 75 75 75 75 74 75 76 77 77 79 77 78 77
66 68 70 69 69 67 63 57 46 46 44 43 42 51 56 46 43 42 41 41 43 46 65 68 67 66 67 67 66 69 71 68 68 69 72 72 72 72 72 73 75 73 73
66 65 68 67 69 67 66 64 57 50 45 43 42 43 43 41 42 41 41 41 44 52 66 63 61 61 61 64 65 66 66 67 65 68 67 66 67 67 66 68 70 70 69
66 55 68 68 69 68 68 68 68 65 63 59 45 48 44 42 42 42 43 48 65 64 66 65 64 64 63 60 62 61 61 62 64 63 64 66 66 65 63 63 63 62 62
64 67 68 69 69 66 67 67 67 66 66 65 63 49 50 45 44 44 44 64 63 63 62 62 63 62 62 61 61 61 60 61 58 59 57 58 59 57 58 59 60 53 53
64 59 63 67 65 67 67 67 67 66 66 66 65 64 66 61 64 63 63 62 62 62 61 61 60 60 60 59 58 58 59 59 59 60 60 58 57 55 52 53 54 53 53
66 65 61 68 68 68 68 67 67 67 66 66 64 54 39 62 64 63 63 62 61 61 59 59 57 57 57 56 56 55 56 56 56 56 56 56 55 54 54 55 54 52 52
68 66 65 67 67 65 66 67 66 66 66 66 66 57 45 61 67 66 64 64 63 61 60 56 55 55 56 54 54 54 52 51 50 50 49 48 47 48 50 50 52 53 52
67 66 66 66 66 61 63 66 66 66 66 66 67 67 65 67 67 66 64 65 64 62 62 59 57 55 54 51 50 48 47 47 46 45 43 43 43 43 44 44 46 47 48
68 68 67 66 64 65 65 65 66 57 65 66 66 65 65 65 66 64 63 65 63 63 62 60 58 56 55 52 50 50 48 47 44 43 43 41 40 40 41 41 42 43 44
69 68 67 66 66 64 65 65 66 65 65 64 65 65 66 65 64 64 65 64 63 62 61 60 59 57 55 53 52 49 43 35 40 38 41 42 40 40 40 39 39 39 39
59 62 65 67 66 66 65 65 65 65 65 65 65 65 65 64 64 64 63 63 61 61 60 60 58 54 54 54 53 41 34 33 39 34 40 40 39 39 40 39 38 38 37
MSLP
1017.87 1018.39 1018.83 1019.20 1019.57 1020.05 1020.40 1020.31 1020.27 1020.35 1020.59 1020.39 1020.64 1020.96 1021.07 1021.10 1021.21 1021.52 1021.39 1021.41 1021.62 1021.55 1021.61 1021.64 1021.62 1021.56 1021.16 1020.74 1020.75 1020.72 1020.51 1020.30 1019.98 1019.47 1019.42 1019.07 1019.69 1019.51 1019.17 1018.87 1018.08 1017.56 1016.76
1017.88 1018.20 1018.52 1018.93 1019.32 1019.52 1019.87 1019.98 1019.99 1020.31 1020.35 1020.41 1020.41 1020.81 1020.88 1020.89 1021.06 1021.53 1021.48 1020.95 1021.30 1021.32 1021.38 1021.47 1021.48 1021.15 1021.45 1021.33 1021.04 1020.96 1020.79 1020.83 1020.63 1020.03 1019.72 1019.33 1019.15 1019.19 1018.80 1018.69 1017.83 1017.27 1016.87
1017.73 1017.95 1018.20 1018.80 1018.95 1019.25 1019.48 1019.76 1019.99 1020.29 1020.23 1020.08 1020.46 1020.51 1020.57 1020.67 1021.03 1021.31 1021.49 1021.57 1021.33 1021.21 1021.18 1021.15 1021.26 1021.35 1021.47 1021.17 1021.23 1020.91 1020.46 1020.34 1020.24 1019.83 1019.56 1019.13 1018.74 1018.47 1018.39 1017.95 1017.59 1017.10 1016.21
1017.97 1018.21 1018.23 1018.93 1018.60 1019.13 1019.47 1019.73 1019.88 1020.06 1020.22 1020.19 1020.26 1020.43 1020.57 1020.38 1020.83 1020.99 1021.13 1021.21 1021.15 1021.02 1021.03 1021.09 1021.09 1021.14 1021.47 1021.47 1021.32 1021.34 1021.08 1021.02 1020.44 1020.39 1019.43 1018.52 1018.01 1017.78 1017.71 1017.23 1016.86 1016.62 1016.27
1019.00 1018.45 1018.70 1018.78 1019.06 1019.30 1019.62 1019.83 1019.94 1020.05 1020.13 1020.18 1020.19 1020.26 1020.37 1020.71 1020.81 1021.24 1021.15 1020.95 1020.89 1020.83 1020.93 1020.87 1020.70 1020.64 1021.22 1021.45 1021.73 1021.47 1021.45 1020.92 1020.32 1019.87 1019.17 1018.44 1017.81 1017.90 1018.06 1017.52 1017.06 1016.67 1016.25
1019.34 1019.47 1019.73 1019.79 1020.13 1019.91 1019.92 1020.24 1020.39 1020.31 1020.33 1020.29 1020.24 1020.29 1020.43 1021.10 1022.43 1022.14 1021.80 1021.06 1020.64 1020.61 1020.55 1020.67 1020.54 1020.78 1020.86 1021.39 1021.60 1021.74 1022.03 1021.59 1021.07 1020.51 1019.58 1018.73 1018.74 1018.53 1018.01 1017.65 1017.53 1016.77 1016.15
1019.66 1019.94 1020.17 1019.95 1020.27 1020.71 1020.64 1020.94 1020.77 1020.79 1020.82 1020.81 1020.69 1021.13 1021.97 1022.38 1022.75 1022.19 1021.75 1021.06 1020.77 1020.64 1020.78 1020.78 1020.99 1021.37 1021.77 1021.65 1021.17 1021.33 1021.40 1021.21 1021.26 1021.03 1020.23 1019.44 1019.13 1018.97 1018.77 1018.29 1017.87 1017.45 1016.57
1020.18 1020.29 1020.43 1020.59 1020.97 1021.25 1021.54 1021.43 1021.54 1021.25 1021.17 1021.23 1021.79 1022.11 1022.77 1023.38 1023.29 1022.41 1021.44 1021.16 1021.57 1021.83 1021.98 1022.21 1022.52 1022.83 1023.18 1023.16 1022.08 1021.24 1020.78 1020.44 1020.31 1020.12 1019.79 1019.45 1019.21 1019.15 1018.99 1018.57 1018.27 1017.68 1016.83
1020.84 1020.81 1021.06 1021.18 1021.23 1021.49 1021.65 1021.80 1022.03 1022.06 1021.83 1022.29 1022.54 1022.92 1023.60 1024.34 1024.17 1023.42 1022.15 1021.75 1021.96 1022.18 1022.52 1022.59 1022.59 1023.14 1024.09 1023.65 1022.69 1021.89 1021.30 1020.38 1019.59 1020.31 1020.35 1019.99 1019.55 1019.35 1019.34 1018.68 1017.50 1017.46 1016.41
1021.41 1021.43 1021.56 1021.54 1021.73 1022.03 1021.83 1021.91 1022.20 1022.82 1023.09 1023.07 1023.35 1023.99 1024.43 1024.77 1025.19 1024.43 1023.27 1022.31 1022.25 1021.84 1022.14 1022.80 1023.96 1023.98 1024.29 1024.07 1023.31 1022.35 1021.73 1021.01 1020.52 1019.95 1019.48 1018.73 1018.56 1017.88 1018.30 1018.09 1017.65 1017.51 1016.83
1022.19 1022.15 1022.05 1021.97 1022.11 1022.30 1022.42 1022.17 1022.57 1023.37 1023.77 1023.75 1024.11 1024.66 1024.97 1025.41 1025.42 1025.63 1025.56 1024.49 1023.49 1022.54 1022.40 1022.51 1022.96 1024.40 1024.52 1024.37 1023.93 1023.15 1022.90 1022.54 1020.88 1019.69 1018.70 1018.09 1017.69 1017.32 1016.96 1017.38 1017.54 1017.47 1016.89
1022.89 1022.94 1022.85 1022.64 1022.39 1022.81 1022.93 1023.05 1023.31 1023.66 1023.86 1024.02 1024.30 1024.27 1025.01 1025.47 1025.85 1025.91 1026.47 1026.28 1025.27 1023.89 1023.88 1023.63 1023.48 1024.49 1024.46 1024.26 1023.55 1023.39 1022.96 1022.34 1020.37 1019.40 1018.84 1018.60 1018.72 1018.52 1018.47 1018.41 1018.27 1017.91 1017.40
1023.19 1023.25 1023.27 1023.28 1023.41 1023.41 1023.42 1023.53 1023.56 1023.78 1023.89 1024.26 1024.24 1024.38 1024.59 1025.13 1025.31 1026.17 1026.52 1026.15 1025.45 1024.69 1024.61 1024.87 1024.27 1024.58 1023.90 1022.87 1023.32 1022.92 1022.49 1021.38 1020.53 1019.77 1019.51 1019.28 1019.26 1019.14 1019.00 1018.30 1018.05 1017.83 1017.09
1023.63 1023.68 1023.73 1023.72 1023.89 1023.89 1023.62 1024.00 1023.94 1024.03 1024.38 1024.67 1024.97 1025.18 1025.80 1026.19 1026.88 1026.96 1025.91 1025.37 1025.22 1024.79 1024.91 1023.54 1023.68 1024.14 1023.69 1023.15 1022.82 1022.39 1022.23 1021.63 1021.32 1020.25 1020.23 1020.09 1019.68 1019.24 1019.01 1018.62 1018.27 1017.88 1017.30
1023.57 1023.71 1023.97 1024.01 1024.35 1024.93 1025.59 1025.89 1026.41 1027.25 1026.67 1025.93 1026.05 1026.13 1026.39 1026.71 1028.21 1028.86 1028.51 1027.45 1026.76 1025.81 1026.33 1024.18 1023.92 1024.07 1023.59 1023.47 1023.05 1022.73 1022.43 1022.19 1021.47 1021.35 1021.10 1020.70 1020.35 1019.91 1019.47 1019.08 1018.81 1018.15 1017.56
1023.65 1023.73 1023.81 1024.03 1024.27 1024.89 1025.77 1027.37 1028.64 1028.57 1028.56 1028.60 1028.35 1028.10 1028.49 1029.22 1029.32 1029.17 1028.77 1028.25 1027.61 1026.78 1025.57 1024.60 1024.41 1024.19 1024.15 1023.99 1023.86 1023.36 1022.87 1023.03 1023.15 1022.77 1021.80 1021.46 1021.04 1020.75 1020.26 1020.20 1019.48 1019.01 1018.21
1023.81 1024.25 1024.18 1024.09 1024.31 1024.74 1025.31 1026.27 1027.58 1029.27 1029.26 1029.22 1029.33 1029.29 1029.26 1029.53 1029.21 1028.89 1028.49 1028.07 1027.33 1026.19 1025.52 1025.46 1025.23 1025.28 1025.44 1025.08 1024.62 1024.23 1023.90 1023.79 1023.95 1023.33 1023.01 1022.59 1022.27 1021.90 1021.57 1020.89 1020.19 1019.84 1019.34
1024.23 1024.69 1024.28 1024.29 1024.51 1024.89 1025.01 1025.40 1025.77 1026.47 1027.22 1028.41 1029.45 1028.85 1029.30 1029.30 1028.99 1028.61 1027.79 1027.13 1026.40 1025.92 1025.78 1025.51 1025.42 1025.47 1025.55 1025.80 1025.35 1025.37 1025.25 1024.97 1024.38 1024.15 1023.68 1023.05 1022.43 1022.39 1022.28 1021.79 1021.59 1021.18 1020.89
1024.81 1024.49 1024.42 1024.66 1024.87 1025.26 1025.37 1025.28 1025.42 1025.85 1026.21 1026.68 1027.30 1028.87 1028.61 1028.79 1028.75 1028.41 1027.93 1027.09 1026.75 1026.46 1026.46 1026.44 1026.49 1026.32 1026.23 1026.21 1025.86 1025.71 1025.66 1025.40 1025.31 1024.82 1024.51 1024.19 1023.92 1023.47 1023.14 1022.57 1022.22 1022.06 1021.59
1025.01 1025.09 1024.79 1025.02 1025.53 1025.31 1025.25 1024.97 1025.15 1025.34 1025.61 1025.95 1026.66 1027.23 1027.15 1027.48 1027.47 1027.57 1027.62 1027.45 1027.10 1026.96 1027.12 1027.04 1026.95 1026.83 1026.77 1026.69 1026.66 1026.67 1026.26 1026.08 1025.50 1024.93 1024.49 1024.46 1024.31 1024.29 1024.18 1023.33 1022.68 1022.38 1021.77
1024.69 1025.20 1025.21 1024.91 1024.77 1024.90 1024.77 1024.71 1025.01 1025.23 1025.47 1025.83 1026.56 1027.99 1028.11 1027.33 1027.18 1027.33 1027.30 1027.35 1027.45 1027.57 1027.67 1027.75 1027.73 1027.64 1027.48 1027.47 1027.29 1027.15 1026.77 1026.60 1026.23 1025.83 1025.63 1025.43 1025.17 1024.63 1024.16 1023.67 1023.04 1022.09 1022.14
1024.27 1024.67 1024.87 1024.49 1024.66 1024.97 1024.89 1025.06 1025.19 1025.22 1025.43 1025.69 1026.04 1027.44 1027.87 1027.36 1027.00 1027.20 1027.40 1027.47 1027.64 1028.02 1028.15 1028.43 1028.24 1028.10 1027.72 1027.74 1027.69 1027.38 1027.36 1027.35 1027.12 1026.92 1026.71 1026.47 1026.07 1025.53 1024.86 1024.08 1023.24 1022.27 1021.57
1023.96 1024.08 1024.33 1024.39 1024.53 1024.88 1025.30 1025.02 1024.97 1025.07 1025.18 1025.52 1025.79 1025.97 1026.22 1026.44 1026.57 1026.75 1026.99 1027.03 1027.26 1027.46 1027.62 1027.84 1027.97 1028.07 1028.15 1028.41 1028.52 1028.36 1028.09 1027.80 1027.70 1027.54 1027.19 1026.60 1026.01 1025.57 1025.06 1024.29 1023.51 1022.43 1021.47
1023.16 1023.35 1023.55 1023.88 1024.31 1024.42 1024.55 1024.57 1024.67 1025.20 1025.01 1025.06 1025.27 1025.61 1025.89 1026.04 1026.13 1026.30 1026.49 1026.54 1026.70 1026.79 1027.05 1027.15 1027.34 1027.57 1027.59 1027.82 1027.86 1027.76 1027.73 1027.76 1027.88 1027.47 1026.96 1026.48 1025.83 1025.19 1024.62 1023.92 1023.17 1022.29 1021.31
1022.35 1022.54 1022.81 1023.11 1023.41 1024.06 1023.91 1024.09 1024.10 1024.33 1024.63 1024.87 1024.79 1024.95 1025.11 1025.37 1025.63 1025.77 1025.74 1025.96 1026.20 1026.37 1026.43 1026.55 1026.70 1026.77 1026.77 1026.89 1027.01 1027.18 1027.29 1027.71 1027.53 1027.20 1026.51 1025.62 1025.02 1024.38 1023.66 1023.03 1022.38 1021.57 1020.75
1022.05 1022.11 1022.20 1022.33 1022.46 1022.83 1023.13 1023.23 1023.55 1023.60 1023.78 1024.05 1024.27 1024.48 1024.66 1024.79 1024.89 1025.15 1025.30 1025.50 1025.70 1025.67 1025.85 1025.93 1026.30 1026.57 1026.32 1026.09 1026.16 1026.81 1027.19 1026.88 1026.51 1026.25 1025.70 1024.89 1024.03 1023.32 1022.57 1021.88 1021.25 1020.49 1019.60
Wind_Speed
12 11 10 8 7 6 5 6 2 4 6 6 6 5 7 7 7 6 6 4 7 6 5 6 6 5 7 6 5 5 6 6 8 8 8 7 9 9 10 10 10 10 6
10 10 11 10 9 8 6 7 5 6 5 6 5 7 6 7 7 7 8 5 7 7 6 5 6 6 5 7 6 5 7 8 8 9 8 8 6 8 7 10 8 10 8
7 10 11 11 10 9 7 6 7 6 6 6 4 6 5 6 8 7 6 5 6 5 5 5 6 6 5 7 5 7 6 5 6 8 9 9 7 8 7 8 9 8 9
6 8 9 10 10 8 6 6 7 7 7 7 6 5 6 6 6 6 6 5 6 6 6 6 6 7 7 7 7 7 7 6 7 8 9 8 8 6 6 9 9 9 10
4 6 7 7 7 7 6 5 5 4 4 5 6 6 5 5 4 5 6 6 6 6 5 7 8 5 5 5 6 6 7 8 7 8 9 9 9 10 9 8 10 10 10
8 7 7 7 7 6 7 5 4 4 2 3 4 5 3 5 7 7 6 6 6 6 5 6 6 7 9 9 8 8 9 8 9 8 10 10 9 8 9 9 10 10 12
8 8 8 9 6 5 5 2 4 4 4 4 4 8 7 7 12 3 4 6 5 5 4 5 4 7 9 9 5 10 12 14 13 9 11 11 12 10 11 12 11 12 12
8 8 8 7 8 4 3 4 3 4 5 4 9 9 9 11 17 11 5 8 9 10 9 10 8 8 9 10 10 10 10 9 6 6 9 11 11 10 10 11 12 13 12
9 9 8 7 6 7 7 5 4 2 7 9 8 10 11 13 20 20 8 6 8 7 9 10 7 7 10 11 8 8 9 8 2 5 7 11 13 12 10 9 10 8 12
7 8 8 7 9 7 7 7 5 8 8 7 12 12 11 13 22 24 19 4 5 5 6 8 14 11 10 11 8 6 8 9 10 11 11 9 10 9 14 9 8 8 8
7 6 7 7 7 7 6 7 9 9 8 9 11 11 12 10 14 19 22 9 7 4 4 4 7 12 10 9 8 7 8 10 10 9 7 7 6 5 6 6 9 9 9
6 6 6 5 7 7 9 8 10 9 9 9 8 8 7 8 13 13 13 9 13 6 6 5 5 13 13 10 9 7 11 11 6 6 7 8 9 8 8 10 11 10 10
6 7 7 7 7 6 8 8 8 6 6 4 3 4 5 6 5 7 3 9 12 6 6 9 9 11 10 9 5 11 13 6 6 6 7 7 7 8 10 9 9 10 11
6 6 5 6 5 5 5 4 4 4 5 4 4 4 4 4 6 7 8 6 5 6 8 4 6 10 10 6 6 6 5 6 7 7 8 8 8 8 9 9 9 10 11
6 6 6 6 6 7 10 8 7 10 10 3 5 5 4 4 7 7 7 7 7 7 9 3 4 5 7 7 7 7 9 8 8 8 9 9 10 10 9 9 10 11 11
6 5 4 6 6 7 8 10 15 13 14 13 14 11 8 9 6 7 8 9 10 11 1 5 5 6 7 7 8 9 9 8 9 10 10 10 10 10 11 11 11 12 12
5 5 5 4 5 6 7 7 8 8 9 9 10 11 11 7 5 6 7 9 12 9 5 5 5 6 7 9 9 9 9 8 10 9 9 9 10 11 12 12 11 11 12
5 5 4 4 5 5 5 5 6 7 7 7 5 5 6 2 4 9 12 8 3 6 6 7 7 7 6 6 7 7 8 10 10 11 12 11 10 10 11 12 12 13 13
6 5 5 5 4 4 5 6 5 5 5 6 8 6 7 7 6 8 11 6 5 6 6 6 6 7 7 8 8 9 9 9 9 9 7 9 10 11 12 13 13 14 13
6 4 4 7 7 6 5 5 5 5 5 4 4 4 2 5 2 5 5 5 5 5 5 5 6 6 7 7 8 8 9 10 10 11 11 10 11 11 12 13 12 14 13
7 8 4 6 6 5 5 4 4 4 4 4 6 5 6 4 3 4 4 4 5 5 5 6 6 6 6 7 8 9 9 10 10 11 11 11 13 14 13 13 13 13 12
7 7 7 6 5 5 5 5 5 5 5 4 5 8 8 6 2 2 2 2 3 3 4 4 5 6 6 7 8 8 9 10 10 10 11 11 11 12 13 15 15 15 15
8 8 8 7 7 6 6 6 6 6 5 4 4 3 5 1 0 0 1 2 2 3 2 3 4 5 5 5 7 8 8 9 9 10 11 12 12 12 13 14 15 16 16
10 10 9 9 8 8 9 8 7 4 5 5 5 5 4 3 2 1 4 2 3 3 4 4 4 6 5 5 5 6 7 7 8 10 14 12 12 13 13 13 14 17 18
11 11 11 10 10 10 9 9 9 8 8 7 6 5 5 5 4 4 3 3 3 4 4 5 5 6 7 8 9 9 6 8 12 14 11 14 15 18 15 13 14 14 18
11 11 11 11 11 10 11 10 10 9 8 8 7 6 6 6 5 5 5 5 5 5 6 5 6 9 10 8 8 8 7 12 14 12 13 12 12 12 13 15 18 14 16
Wind_Direction
199 196 214 201 209 207 213 233 258 239 195 184 206 205 217 216 208 210 249 218 224 226 257 248 248 269 272 283 273 277 278 278 284 296 322 324 321 311 326 324 305 296 334
199 210 203 205 207 214 216 236 212 217 206 221 206 209 211 218 206 230 236 215 222 223 228 247 253 244 243 247 263 267 305 317 294 299 298 298 302 317 311 306 311 313 334
211 209 216 196 211 222 220 220 234 235 233 245 206 215 211 210 192 205 233 241 239 241 247 239 252 260 259 294 297 298 281 252 254 282 311 293 314 287 320 294 287 305 293
224 213 215 219 212 213 214 215 221 219 235 220 215 203 214 187 180 197 199 222 245 243 242 251 251 257 259 265 273 299 262 283 273 269 275 293 295 296 280 315 330 318 332
172 195 182 166 172 162 155 164 179 200 203 224 214 211 192 199 194 217 211 225 233 240 241 247 241 271 351 297 286 271 288 262 275 284 287 299 310 354 322 318 302 325 309
148 131 110 108 92 88 119 129 128 114 132 186 183 192 205 76 8 16 311 257 245 256 255 251 269 185 233 236 241 254 275 275 272 280 290 303 298 286 304 311 314 314 309
160 140 136 116 104 86 69 96 109 104 102 100 111 94 63 30 357 353 287 246 238 253 273 288 277 44 15 340 283 237 234 229 234 274 283 286 298 300 304 297 306 308 302
105 118 130 136 125 115 98 85 97 107 104 93 81 78 62 39 360 353 301 55 61 60 55 53 45 38 20 342 315 311 311 306 274 248 269 292 304 322 309 303 298 288 285
112 103 105 100 109 137 145 145 121 41 70 88 91 83 69 41 15 359 344 101 94 83 80 56 49 44 8 347 327 332 319 312 351 9 280 272 266 263 263 292 286 313 297
93 109 110 122 136 145 136 134 135 95 99 96 95 90 72 59 25 17 357 63 80 102 108 115 70 35 356 348 339 339 322 332 325 320 308 288 251 253 223 237 303 315 308
75 79 99 115 114 116 106 120 114 112 102 100 98 82 69 48 53 33 7 31 358 50 45 59 53 14 350 328 312 358 332 311 297 282 301 306 320 316 336 18 353 323 307
106 90 83 90 112 112 117 112 117 126 122 123 131 129 96 71 54 40 11 4 359 29 10 25 13 351 326 310 308 324 284 274 299 330 346 350 349 341 337 331 321 317 313
111 106 104 102 101 103 109 123 125 120 111 85 97 86 81 60 52 75 5 353 9 351 10 329 307 286 283 301 279 297 288 319 337 336 341 339 341 328 315 313 324 324 302
118 112 115 106 93 89 90 82 87 104 109 117 123 117 95 78 28 354 351 352 8 359 347 329 314 277 274 273 315 326 318 349 343 340 341 327 328 324 322 328 326 324 318
128 124 133 120 99 82 51 33 81 44 19 72 59 45 21 57 41 348 340 347 347 351 314 339 17 0 3 5 358 2 352 356 346 354 335 329 327 326 325 331 327 315 314
146 156 129 138 138 121 110 90 56 64 60 57 46 38 94 59 10 329 326 320 300 302 335 21 33 16 11 5 355 352 3 2 1 327 331 336 332 328 331 326 320 323 316
133 142 132 156 139 146 142 136 123 101 89 85 79 67 55 35 338 330 319 318 280 292 66 53 36 22 5 353 355 349 349 352 333 327 319 325 322 324 322 320 318 323 319
143 34 158 138 144 149 151 153 155 154 146 136 106 75 95 73 346 327 319 302 75 41 27 24 18 10 10 358 349 351 341 336 340 342 334 326 326 327 320 319 319 317 314
178 168 154 150 146 144 152 149 139 141 129 130 144 196 170 195 233 270 287 35 32 36 26 16 9 2 359 352 349 340 337 332 323 311 304 310 320 319 311 312 312 309 317
196 88 202 154 170 170 165 149 138 130 124 108 97 52 41 195 87 47 47 32 27 22 15 4 5 357 356 349 346 335 330 329 331 331 330 322 315 328 321 315 311 307 307
175 168 249 188 180 173 164 150 150 152 142 138 115 65 346 329 52 45 26 30 13 4 2 357 353 348 344 342 339 333 327 329 329 328 324 323 325 317 320 303 296 300 296
191 184 196 202 182 186 185 177 181 175 170 170 151 140 224 258 74 48 27 352 360 357 354 342 328 330 326 333 323 320 324 318 319 317 316 313 309 307 305 305 300 297 297
208 201 199 212 202 176 194 207 199 202 193 193 189 179 186 145 210 307 323 312 314 291 299 282 289 296 306 311 311 311 308 309 314 317 312 306 303 301 301 298 296 296 296
213 214 214 210 206 206 207 213 214 233 258 214 208 212 221 229 255 223 263 299 294 297 296 307 305 286 297 289 292 296 301 315 316 299 301 298 290 287 285 284 284 284 286
228 218 219 217 214 211 222 227 216 217 211 228 235 231 235 231 246 251 262 267 278 289 291 300 296 306 301 321 306 304 332 318 298 301 292 295 288 286 280 275 275 277 279
219 227 228 229 217 222 219 221 222 222 225 228 229 236 247 256 259 261 264 264 271 291 303 297 293 300 300 305 307 355 297 279 288 286 295 297 290 286 288 283 279 280 278